Akron, CO

1:31 PM MDT on August 24, 2016 (GMT -0600)
Akron-Washington County

Weather History for KAKO - March, 2013

Change the Weather History Date:

Thursday, March 14, 2013

  Actual Average Record
Temperature  
Mean Temperature 51 °F 39 °F  
Max Temperature 68 °F 52 °F 76 °F (2003)
Min Temperature 33 °F 26 °F 6 °F (1954)
Degree Days  
Heating Degree Days 14    
Month to date heating degree days 395  
Cooling Degree Days 0    
Month to date cooling degree days 0  
Growing Degree Days 1 (Base 50)    
Moisture  
Dew Point 26 °F    
Average Humidity 47    
Maximum Humidity 75    
Minimum Humidity 19    
Precipitation  
Precipitation 0.00 in 0.03 in 0.42 in (1987)
Month to date precipitation 0.29 0.32  
Year to date precipitation 0.41 1.06  
Sea Level Pressure  
Sea Level Pressure 30.15 in    
Wind  
Wind Speed 11 mph (West)    
Max Wind Speed 17 mph    
Max Gust Speed 21 mph    
Visibility 10 miles    
Events      
T = Trace of Precipitation, MM = Missing Value Source: NWS Daily Summary

Daily Weather History Graph

Daily Weather History Graph

Search for Another Location

Airport or City:

Trip Planner

Search our weather history database for the weather conditions in past years. The results will help you decide how hot, cold, wet, or windy it might be!

Date:

Astronomy

Mar. 14, 2013 Rise Set
Actual Time 7:05 AM MDT 6:58 PM MDT
Civil Twilight 6:38 AM MDT 7:26 PM MDT
Nautical Twilight 6:06 AM MDT 7:57 PM MDT
Astronomical Twilight 5:35 AM MDT 8:29 PM MDT
Moon 8:20 AM MDT (3/14) 10:17 PM MDT (3/14)
Length of Visible Light 12h 47m
Length of Day
11h 53m
Waxing Crescent, 9% of the Moon is Illuminated
Mar 14
Waxing Crescent
Mar 19
First Quarter
Mar 27
Full
Apr 2
Last Quarter
Apr 10
New

Hourly Weather History & Observations

Time (MDT) Temp. Windchill Dew Point Humidity Pressure Visibility Wind Dir Wind Speed Gust Speed Precip Events Conditions
12:53 AM 42.1 °F 35.2 °F 30.0 °F 62% 30.15 in 10.0 mi SW 12.7 mph - N/A   Clear
1:53 AM 43.0 °F 36.4 °F 28.9 °F 58% 30.14 in 10.0 mi SW 12.7 mph - N/A   Clear
2:53 AM 39.9 °F 34.5 °F 28.0 °F 63% 30.15 in 10.0 mi WSW 8.1 mph - N/A   Clear
3:53 AM 37.0 °F 30.4 °F 27.0 °F 67% 30.17 in 10.0 mi WSW 9.2 mph - N/A   Clear
4:53 AM 37.9 °F 30.9 °F 27.0 °F 65% 30.17 in 10.0 mi West 10.4 mph - N/A   Clear
5:53 AM 37.9 °F 30.5 °F 27.0 °F 65% 30.20 in 10.0 mi West 11.5 mph - N/A   Clear
6:53 AM 34.0 °F 26.6 °F 27.0 °F 75% 30.25 in 10.0 mi West 9.2 mph - N/A   Clear
7:53 AM 42.1 °F 35.7 °F 28.0 °F 58% 30.25 in 10.0 mi WNW 11.5 mph - N/A   Clear
8:53 AM 46.9 °F - 30.0 °F 52% 30.26 in 10.0 mi West 13.8 mph - N/A   Clear
9:53 AM 54.0 °F - 28.9 °F 38% 30.24 in 10.0 mi NW 11.5 mph - N/A   Clear
11:53 AM 62.1 °F - 26.1 °F 25% 30.20 in 10.0 mi NNW 6.9 mph - N/A   Clear
12:53 PM 64.0 °F - 21.9 °F 20% 30.18 in 10.0 mi NW 11.5 mph 19.6 mph N/A   Clear
1:53 PM 64.9 °F - 24.1 °F 21% 30.15 in 10.0 mi WNW 11.5 mph - N/A   Clear
2:53 PM 66.9 °F - 23.0 °F 19% 30.12 in 10.0 mi West 8.1 mph 19.6 mph N/A   Clear
3:53 PM 68.0 °F - 24.1 °F 19% 30.11 in 10.0 mi NW 11.5 mph - N/A   Clear
4:53 PM 66.9 °F - 24.1 °F 20% 30.09 in 10.0 mi West 8.1 mph - N/A   Clear
5:53 PM 64.0 °F - 24.1 °F 22% 30.10 in 10.0 mi SW 11.5 mph - N/A   Clear
6:53 PM 55.9 °F - 28.0 °F 34% 30.13 in 10.0 mi SW 9.2 mph - N/A   Clear
7:53 PM 53.1 °F - 26.1 °F 35% 30.10 in 10.0 mi SW 10.4 mph - N/A   Clear
8:53 PM 52.0 °F - 26.1 °F 37% 30.09 in 10.0 mi SW 15.0 mph - N/A   Clear
9:53 PM 51.1 °F - 26.1 °F 38% 30.07 in 10.0 mi SW 11.5 mph - N/A   Clear
10:53 PM 53.1 °F - 26.1 °F 35% 30.05 in 10.0 mi SSW 12.7 mph - N/A   Clear
11:53 PM 52.0 °F - 27.0 °F 38% 30.02 in 10.0 mi SSW 13.8 mph - N/A   Clear